(199538) = 2006 DE203

Discovered at Anderson Mesa on 2006-02-22 by LONEOS.

Orbit

Orbit type: Main Belt

Note: WebGL enabled browser required.

epoch2023-09-13.0
epoch JD2460200.5
perihelion date2021-08-19.34594
perihelion JD2459445.84594
argument of perihelion (°)215.01527
ascending node (°)57.80621
inclination (°)4.98555
eccentricity0.0369984
perihelion distance (AU)2.6915660
Tisserand w.r.t. Jupiter3.3
ΔV w.r.t. Earth (km/sec)10.3
semimajor axis (AU)2.7949756
mean anomaly (°)159.17862
mean daily motion (°/day)0.21092930
aphelion distance (AU)2.898
period (years)4.67
P-vector [x]0.04738711
P-vector [y]-0.89547339
P-vector [z]-0.44258543
Q-vector [x]0.99616559
Q-vector [y]0.07498864
Q-vector [z]-0.04506457
absolute magnitude15.85
phase slope0.15
uncertainty0
referenceMPEC 2024-A48
observations used535
oppositions17
arc length (days)7918
first opposition used2002
last opposition used2024
residual rms (arc-secs)0.76
perturbers coarse indicatorM-v
perturbers precise indicator003Ek
first observation date used2002-04-30.0
last observation date used2024-01-03.0
computer nameMPCLINUX
JD of orbit computation2456966.779257
perihelion JD uncertainty (days)4.9917E-04
argument of perihelion uncertainty (°)1.2013E-04
ascending node uncertainty (°)6.1578E-05
inclination uncertainty (°)6.5207E-06
eccentricity uncertainty 5.4467E-08
perihelion distance uncertainty (AU)1.4102E-07
Minimum Orbit Intersection Distances (in AU)
for orbit epoch: 2460200.5, reference: E2024-A48
Mercury2.22691
Venus1.96495
Earth1.6766
Mars1.14268
Jupiter2.11866
Saturn6.16271
Uranus15.6248
Neptune26.9901

Observations

557 total observations over interval: 1992 03 02.21389 – 2024 01 03.356353
These data are available for download (format description).

Date (UT) J2000 RA J2000 Dec Magn Location Ref
1992 03 02.21389 10 55 15.54 +15 00 35.5   809 – European Southern Observatory, La Silla MPS 171636
2002 04 30.28421 14 53 01.75 -14 24 13.2 19.7   644 – Palomar Mountain/NEAT MPS 171636
2002 04 30.35504 14 52 57.86 -14 24 04.2 19.6   644 – Palomar Mountain/NEAT MPS 171636
2002 04 30.41702 14 52 54.50 -14 23 56.0 19.6   644 – Palomar Mountain/NEAT MPS 171636
2002 05 10.22835 14 44 08.80 -14 02 40.8 18.8   704 – Lincoln Laboratory ETS, New Mexico MPS 171636
2002 05 10.24310 14 44 08.00 -14 02 40.1 19.2   704 – Lincoln Laboratory ETS, New Mexico MPS 171636
2002 05 10.27269 14 44 06.36 -14 02 35.5 19.2   704 – Lincoln Laboratory ETS, New Mexico MPS 171636
2003 07 08.43782 22 49 36.03 -14 49 15.4 19.9   644 – Palomar Mountain/NEAT MPS 171636
2003 07 08.45948 22 49 36.03 -14 49 18.7 19.9   644 – Palomar Mountain/NEAT MPS 171636
2003 07 08.48201 22 49 36.02 -14 49 21.7 19.7   644 – Palomar Mountain/NEAT MPS 171636
2003 08 26.31486 22 24 36.71 -18 24 03.3 19.7   704 – Lincoln Laboratory ETS, New Mexico MPS 171636
2003 08 26.32747 22 24 35.84 -18 24 06.0 19.7   704 – Lincoln Laboratory ETS, New Mexico MPS 171636
2003 08 26.34032 22 24 35.00 -18 24 09.0 19.5   704 – Lincoln Laboratory ETS, New Mexico MPS 171636
2004 11 20.33077 04 28 49.39 +22 45 11.2 19.8 V 691 – Steward Observatory, Kitt Peak-Spacewatch MPS 171636
2004 11 20.35833 04 28 47.77 +22 45 10.5 19.8 V 691 – Steward Observatory, Kitt Peak-Spacewatch MPS 171636
2004 11 20.38918 04 28 45.95 +22 45 09.8 19.9 V 691 – Steward Observatory, Kitt Peak-Spacewatch MPS 171636
2006 01 23.40495 11 08 56.54 +13 05 02.4 20.4 V 691 – Steward Observatory, Kitt Peak-Spacewatch MPS 171636
2006 01 23.42215 11 08 56.20 +13 05 06.5 20.4 V 691 – Steward Observatory, Kitt Peak-Spacewatch MPS 171636
2006 01 23.43942 11 08 55.83 +13 05 10.7 20.5 V 691 – Steward Observatory, Kitt Peak-Spacewatch MPS 171636
2006 02 03.38559 11 04 02.97 +13 54 43.0 19.7   704 – Lincoln Laboratory ETS, New Mexico MPS 171636
2006 02 03.39929 11 04 02.46 +13 54 47.3 20.0   704 – Lincoln Laboratory ETS, New Mexico MPS 171636
2006 02 03.43931 11 04 01.03 +13 54 58.6 19.9   704 – Lincoln Laboratory ETS, New Mexico MPS 171636
2006 02 22.23674 10 50 17.17 +15 34 27.5 19.2 R 699 – Lowell Observatory-LONEOS MPS 166374
2006 02 22.25961 10 50 16.06 +15 34 34.7   699 – Lowell Observatory-LONEOS MPS 166374
2006 02 22.28245 10 50 14.77 +15 34 41.6   699 – Lowell Observatory-LONEOS MPS 166374
2006 02 22.30531 10 50 13.63 +15 34 48.1   699 – Lowell Observatory-LONEOS MPS 166374
2006 03 03.22796 10 42 30.37 +16 18 28.9 19.2 R 699 – Lowell Observatory-LONEOS MPS 166374
2006 03 03.25352 10 42 29.06 +16 18 34.4   699 – Lowell Observatory-LONEOS MPS 166374
2006 03 03.28674 10 42 27.10 +16 18 43.8   699 – Lowell Observatory-LONEOS MPS 166374
2006 03 03.31388 10 42 25.74 +16 18 51.1   699 – Lowell Observatory-LONEOS MPS 166374
2008 09 06.31059 00 42 23.58 -02 23 47.6 19.8 V 703 – Catalina Sky Survey MPS 255897
2008 09 06.31704 00 42 23.43 -02 23 49.7 20.0 V 703 – Catalina Sky Survey MPS 255897
2008 09 06.32348 00 42 23.11 -02 23 51.7 20.3 V 703 – Catalina Sky Survey MPS 255897
2008 09 06.32994 00 42 22.89 -02 23 53.3 20.0 V 703 – Catalina Sky Survey MPS 255897
2008 09 22.28433 00 30 37.33 -03 34 59.5 19.4   704 – Lincoln Laboratory ETS, New Mexico MPS 256750
2008 09 22.30824 00 30 36.13 -03 35 06.3 19.8   704 – Lincoln Laboratory ETS, New Mexico MPS 256750
2008 09 22.32020 00 30 35.60 -03 35 08.8 19.6   704 – Lincoln Laboratory ETS, New Mexico MPS 256750
2008 09 23.23565 00 29 50.49 -03 39 13.1 19.2   704 – Lincoln Laboratory ETS, New Mexico MPS 256750
2008 09 23.24797 00 29 49.93 -03 39 15.7 19.8   704 – Lincoln Laboratory ETS, New Mexico MPS 256750
2008 09 23.26026 00 29 49.30 -03 39 18.9 19.9   704 – Lincoln Laboratory ETS, New Mexico MPS 256750
2008 09 23.27257 00 29 48.65 -03 39 21.8 19.6   704 – Lincoln Laboratory ETS, New Mexico MPS 256750
2008 09 23.28462 00 29 47.99 -03 39 26.7 19.7   704 – Lincoln Laboratory ETS, New Mexico MPS 256750
2008 10 01.29024 00 23 06.28 -04 13 18.8 19.6 V 703 – Catalina Sky Survey MPS 257994
2008 10 01.29994 00 23 05.82 -04 13 19.5 19.1 V 703 – Catalina Sky Survey MPS 257994
2008 10 01.30957 00 23 05.35 -04 13 22.7 19.9 V 703 – Catalina Sky Survey MPS 257994
2008 10 01.31933 00 23 04.84 -04 13 26.1 19.5 V 703 – Catalina Sky Survey MPS 257994
2008 10 22.19501 00 07 34.79 -05 11 31.4 19.2   704 – Lincoln Laboratory ETS, New Mexico MPS 260627
2008 10 22.20653 00 07 34.42 -05 11 32.8 20.4   704 – Lincoln Laboratory ETS, New Mexico MPS 260627
2008 10 22.21799 00 07 33.88 -05 11 34.8 20.5   704 – Lincoln Laboratory ETS, New Mexico MPS 260627
2008 10 22.22945 00 07 33.42 -05 11 37.0 20.1   704 – Lincoln Laboratory ETS, New Mexico MPS 260627
2008 10 22.24097 00 07 33.07 -05 11 36.2 20.2   704 – Lincoln Laboratory ETS, New Mexico MPS 260627
2008 11 02.17110 00 02 17.37 -05 17 07.7 20.0 V G96 – Mt. Lemmon Survey MPS 263259
2008 11 02.19214 00 02 16.87 -05 17 07.0 20.1 V G96 – Mt. Lemmon Survey MPS 263259
2008 11 02.20265 00 02 16.62 -05 17 06.9 20.0 V G96 – Mt. Lemmon Survey MPS 263259
2009 12 19.23250 06 34 50.03 +27 38 02.6 19.9 V 691 – Steward Observatory, Kitt Peak-Spacewatch MPS 309189
2009 12 19.25024 06 34 48.95 +27 38 05.3 20.7 V 691 – Steward Observatory, Kitt Peak-Spacewatch MPS 309189
2009 12 19.26798 06 34 47.84 +27 38 07.6 20.1 V 691 – Steward Observatory, Kitt Peak-Spacewatch MPS 309189
2011 02 25.39133 13 03 37.17 -00 21 11.3 20.2 V 691 – Steward Observatory, Kitt Peak-Spacewatch MPS 371865
2011 02 25.40905 13 03 36.80 -00 21 07.5 20.2 V 691 – Steward Observatory, Kitt Peak-Spacewatch MPS 371865
2011 02 25.42679 13 03 36.41 -00 21 05.1 20.1 V 691 – Steward Observatory, Kitt Peak-Spacewatch MPS 371866
2011 03 10.71040 12 57 02.97 +00 26 32.5 20.0 R D29 – Purple Mountain Observatory, XuYi Station MPS 374646
2011 03 10.72255 12 57 02.48 +00 26 36.9 19.5 R D29 – Purple Mountain Observatory, XuYi Station MPS 374646
2011 03 10.73469 12 57 02.04 +00 26 39.1 20.2 R D29 – Purple Mountain Observatory, XuYi Station MPS 374646
2011 03 10.74684 12 57 01.48 +00 26 42.0 20.0 R D29 – Purple Mountain Observatory, XuYi Station MPS 374646
2011 03 24.38642 12 47 00.24 +01 26 14.7 19.7 V 703 – Catalina Sky Survey MPS 376930
2011 03 24.39161 12 47 00.02 +01 26 16.2 19.9 V 703 – Catalina Sky Survey MPS 376930
2011 03 24.39688 12 46 59.73 +01 26 18.3 19.2 V 703 – Catalina Sky Survey MPS 376930
2011 03 24.40209 12 46 59.48 +01 26 19.5 19.6 V 703 – Catalina Sky Survey MPS 376930
2011 03 28.29887 12 43 46.43 +01 43 29.7 19.3   704 – Lincoln Laboratory ETS, New Mexico MPS 376930
2011 03 28.32325 12 43 45.06 +01 43 35.7 19.6   704 – Lincoln Laboratory ETS, New Mexico MPS 376930
2011 03 28.33542 12 43 44.43 +01 43 39.1 20.0   704 – Lincoln Laboratory ETS, New Mexico MPS 376930
2011 03 28.34768 12 43 43.73 +01 43 41.7 20.1   704 – Lincoln Laboratory ETS, New Mexico MPS 376930
2011 03 29.31193 12 42 55.30 +01 47 52.2 19.6   704 – Lincoln Laboratory ETS, New Mexico MPS 376930
2011 03 29.33828 12 42 53.93 +01 47 58.9 20.0   704 – Lincoln Laboratory ETS, New Mexico MPS 376930
2011 03 29.35074 12 42 53.26 +01 48 02.1 19.9   704 – Lincoln Laboratory ETS, New Mexico MPS 376930
2011 03 29.36333 12 42 52.62 +01 48 04.6 19.6   704 – Lincoln Laboratory ETS, New Mexico MPS 376930
2011 04 11.37875 12 32 01.86 +02 38 11.6 19.0 V 703 – Catalina Sky Survey MPS 379544
2011 04 11.38774 12 32 01.35 +02 38 12.9 18.9 V 703 – Catalina Sky Survey MPS 379544
2011 06 25.17588 12 26 32.56 +00 08 40.0 21.2 V G96 – Mt. Lemmon Survey MPS 386225
2011 06 25.18109 12 26 32.78 +00 08 38.2 21.0 V G96 – Mt. Lemmon Survey MPS 386225
2011 06 25.18623 12 26 32.96 +00 08 36.1 21.2 V G96 – Mt. Lemmon Survey MPS 386225
2011 06 25.19145 12 26 33.18 +00 08 34.1 20.4 V G96 – Mt. Lemmon Survey MPS 386225
2012 06 16.53323 20 14 40.449 -25 41 16.56 20.0 w F51 – Pan-STARRS 1, Haleakala MPS 427722
2012 06 16.54716 20 14 40.046 -25 41 19.78 19.9 w F51 – Pan-STARRS 1, Haleakala MPS 427722
2012 06 16.56109 20 14 39.652 -25 41 23.03 19.8 w F51 – Pan-STARRS 1, Haleakala MPS 427722
2012 06 16.57499 20 14 39.252 -25 41 26.37 19.8 w F51 – Pan-STARRS 1, Haleakala MPS 427722
